FLOCK 4BE-4 (60482 NORAD) Tracking and Keplerian Element Data

This shows tracking and keplerian element data for the satellite.

Feedback or suggestion? Click here.




ElementValue
Catalog60482
NameFLOCK 4BE-4
Epoch Orbit864
Epoch Day286.7428578
Epoch Year2024
RAAN1.4737
Inclination97.438
Eccentricity0.0005217
Argument of Perigee267.62
Mean Anonmoly92.4439
Mean Motion15.23185086
Decay Rate0.00083325
L11 60482U 24149Q 24286.74285780 .00083325 00000+0 34898-2 0 9997
L22 60482 97.4380 1.4737 0005217 267.6200 92.4439 15.23185086 8641



Live tracking and technical data element details for FLOCK 4BE-4 (NORAD 60482). FLOCK 4BE-4 can be tracked NOW for your location showing map with azimuth and elevation plus other details from your city location.







IsCatalogInMostPopularTable: catalog: 60482, numindb: 6
Update: records affected: 1



GetName: 60482 FLOCK 4BE-4

Hit Count: updated at: Wed, 04 Dec 2024 18:57:30 GMT